2008 10  7  02 32 00   341 41 09    +21 41 11    0.00008   11.2 162798.4/ 80.     5771.5  10.37

2008 10  7  02 33 00   343 25 36    +21 58 59    0.00008   11.1 176833.2/ 81.     5292.4  10.35

2008 10  7  02 34 00   345 20 52    +22 16 41    0.00007   11.1 195544.0/ 82.     4816.4  10.49

2008 10  7  02 35 00   347 30 17    +22 34 14    0.00007   11.1 210699.0/ 83.     4337.3  10.80

2008 10  7  02 36 00   349 51 46    +22 50 45    0.00007   11.0 234322.9/ 84.     3870.0  10.80

2008 10  7  02 37 00   352 31 15    +23 06 04    0.00007   11.0 253670.2/ 85.     3404.4  11.11

2008 10  7  02 38 00   355 26 02    +23 19 03    0.00006   11.0 283237.5/ 86.     2954.8  11.11

2008 10  7  02 39 00   358 43 19    +23 29 00    0.00006   11.0 308029.3/ 87.     2507.9  11.47

2008 10  7  02 40 00     2 19 51    +23 34 26    0.00006   10.9 345492.8/ 89.     2078.5  11.52

2008 10  7  02 41 00     6 24 29    +23 33 38    0.00005   10.9 376848.6/ 91.     1657.3  11.91

2008 10  7  02 42 00    10 52 34    +23 24 40    0.00005   10.9 424175.9/ 92.     1259.9  11.96

2008 10  7  02 43 00    15 55 04    +23 04 24    0.00005   11.0 473714.4/ 94.      884.9  12.35

2008 10  7  02 44 00    21 32 02    +22 29 20    0.00005   11.0 509184.6/ 97.      535.7  12.72

2008 10  7  02 45 00    27 31 44    +21 37 38    0.00004   11.1 557716.4/ 99.      228.7  12.67

2008 10  7  02 46 00    34 01 11    +20 25 08    0.00004   11.2 586281.9/101.      -39.0  12.94





軌道と残差:

 

2008 TC3 

Epoch 2008 Oct. 6.0 TT = JDT 2454745.5                  Nakano

M 328.47598              (2000.0)            P               Q

n   0.68822087     Peri.  233.95106     +0.37341368     -0.92761192

a   1.2705278      Node   194.13270     +0.86364505     +0.35152641

e   0.2851932      Incl.    2.32778     +0.33864355     +0.12635391

P   1.43           H   30.4           G   0.15           U   2

Residuals in seconds of arc 

081006 G96  0.6+  0.2+    081006 A77  1.4+  0.2+    081006 114 (3.2+  0.8+) 

081006 G96  0.2+  0.1+    081006 213  0.6-  0.2-    081006 213  0.6-  0.4-  

081006 G96  0.2-  0.1-    081006 A77  1.5+  0.7+    081006 J47  0.3-  0.3-  

081006 G96  0.2+  0.1+    081006 A77  0.7+  0.4+    081006 J47  0.1+  0.2-  

081006 G96  0.3+  0.1+    081006 J47  0.0   0.2+    081006 952  0.2+  1.8-  

081006 G96  0.2+  0.1+    081006 J47  0.5-  0.3-    081006 J47  0.4-  0.2-  

081006 854  0.7-  1.3+    081006 A77  0.8+  0.4+    081006 J47  0.1-  0.3-  

081006 G96  0.2+  0.1+    081006 J51  0.9-  0.8-    081006 213  0.1+  0.4-  

081006 854  0.3+  0.1+    081006 A77  0.2-  0.2+    081006 473  0.1-  0.2+  

081006 854  0.1+  1.3+    081006 J51  0.2-  0.3-    081006 J95  0.8-  0.1-  

081006 G96  0.1+  0.3+    081006 J47  0.2-  0.2+    081006 473  0.4-  0.4-  

081006 G96  0.4+  0.2+    081006 J51  0.3+  0.3-    081006 213  0.8-  0.2-  

081006 G96  0.6+  0.1+    081006 J47  0.2-  0.0     081006 952  1.7-  0.3+  

081006 G96  0.5+  0.2+    081006 J47  0.0   0.4+    081006 213  0.8-  0.1-  

081006 G96  0.6+  0.1+    081006 J47  0.1+  0.1+    081006 J47  0.3+  0.0   

081006 D90  0.5+  0.4-    081006 J47  0.2+  0.1-    081006 952  1.2-  1.2-  

081006 D90  0.4+  0.0     081006 213  0.5-  0.3-    081006 J47  0.2-  0.1-  

081006 D90  0.4-  0.5+    081006 J47  0.5+  0.2-    081006 J47  0.4-  0.3-  

081006 E12  0.3+  0.5-    081006 J95  0.6-  0.4-    081006 J47  0.7+  0.1-  

081006 E12  0.4+  0.4-    081006 J47  0.7-  0.1-    081006 J47  0.2+  0.0   

081006 E12  0.5+  0.2-    081006 213  0.5-  0.4-    081006 J47  0.9+  0.1+  

081006 E12  0.8+  0.5+    081006 J47  0.1-  0.2-    081006 J47  0.4+  0.1-  

081006 E12  1.5+  0.0     081006 J47  0.1-  0.2-    081006 J95  0.7-  0.2-  

081006 E12  0.4+  0.8-    081006 213  0.2-  0.1-    081006 J47  0.1-  0.0   

081006 E12  0.3-  0.5-    081006 J75  0.8+  0.0     081006 J95  0.5-  0.3-  

081006 E12  0.5+  0.6-    081006 J95  0.6-  0.2-    081006 J47  0.6+  0.2+  

081006 114  0.4+  0.5+    081006 J47  0.4+  0.3+    081006 213  0.0   0.6-  

081006 114  0.1-  0.4+    081006 952  0.3+  1.2-    081006 J47  0.3+  0.0   

081006 114  0.1+  0.9+    081006 213  0.6-  0.6-    081006 J47  0.8+  0.1+  

081006 114  0.5+  0.8+    081006 J47  0.4-  0.1+    081006 213  0.2-  0.3-  

081006 114  0.9-  0.6+    081006 J47  0.1+  0.2+    081006 J47  0.6+  0.1-  

081006 114  0.4+  0.5+    081006 J95  0.6-  0.2-    081006 J47  0.6+  0.1+  

081006 114  0.5+  0.7+    081006 952  0.0   1.3-    081006 J47  0.8+  0.4+  

081006 114  0.4+  0.5+    081006 473  0.4-  0.2-    081006 J47  0.3+  0.2-  

081006 114  0.5+  0.6+    081006 952  0.3+  0.8-    081006 J47  1.0+  0.0   

081006 106  0.0   0.5-    081006 A77  0.6+  0.5+    081006 213  1.1-  0.1-  

081006 106  1.9-  0.3+    081006 A77  0.0   0.1+    081006 J47  0.2-  0.0   

081006 114  0.2+  0.9+    081006 143  0.2+  0.4-    081006 473  0.3-  0.0   

081006 106  1.8-  1.2-    081006 A77  0.8+  0.4+    081006 J47  0.5+  0.3-  

081006 114  0.1+  0.6+    081006 J95  0.7-  0.3-    081006 A77  0.0   0.3+  

081006 114  0.4+  0.3+    081006 473  0.0   0.0     081006 A77  0.0   0.1+  

081006 114  0.5+  0.5+    081006 A77  0.4-  0.1+    081006 A77  0.0   0.4+  

081006 114  0.0   0.4+    081006 A77  0.3+  0.3+    081006 J47  0.5+  0.3-  

081006 143  0.7-  0.0     081006 A77  0.1-  0.4+    081006 A77  0.2+  0.6+  

081006 143  0.1-  0.1-    081006 143  0.3+  0.3-    081006 A77  0.6-  0.3+  

081006 143  0.1-  0.2-    081006 213  0.6-  1.0-    081006 213  1.7-  0.3-  

081006 143  0.4-  0.0     081006 A77  0.3-  0.4+    081006 J47  0.0   0.3-  

081006 595  0.6-  0.4+    081006 A77  0.7-  0.2+    081006 A77  0.6+  0.3+  

081006 143  0.3-  0.0     081006 473  0.1+  0.1-    081006 A77  0.8+  0.2+  

081006 620  0.3-  0.3+    081006 A77  0.9+  0.4+    081006 J47  0.9+  0.1+  

081006 A77 (4.9-  0.6+)   081006 A77  0.4-  0.5+    081006 A77  0.4-  0.1-  

081006 A77 (2.5-  0.2-)   081006 A77  0.0   0.4+    081006 A77  0.3-  0.3+  

081006 595  0.1-  0.9+    081006 143  0.4+  0.3-    081006 J47  0.3-  1.9-  

081006 595  0.5-  0.6+    081006 A77  0.3-  0.5+    081006 A77  0.3-  0.2+  

081006 143  0.3-  0.0     081006 A77  0.7-  0.2+    081006 A77  0.6-  0.1-  

081006 A77 (2.3-  0.1-)   081006 J75  0.3+  0.1-    081006 A86 (3.6+  0.2+) 

081006 620  0.1-  0.0     081006 J75  0.1-  0.1+    081006 J47  0.5+  0.2-  

081006 620  0.3+  0.1-    081006 473  0.1-  0.3-    081006 J47  0.6+  0.4+  

081006 620  1.2-  0.2-    081006 213  0.6-  0.3-    081006 A86 (6.1+  0.2+) 

081006 143  0.1-  0.1+    081006 J47  0.2-  0.2-    081006 J95  0.8-  0.3-  

081006 J95  0.5-  0.1-    081006 A86  1.7+  0.7+    081006 J47  0.8+  0.5+  

081006 J95  0.5-  0.3-    081006 A86  1.6+  0.1+    081006 A86  2.2+  0.6+  

081006 J95  0.3-  0.1-    081006 J47  0.4-  0.1-    081006 J47  0.8+  0.1-  

081006 143  0.1-  0.1-    081006 213  1.1-  0.4-    081006 J47  0.5+  0.0   

081006 J95  0.4-  0.3-    081006 J47  0.0   0.3-    081006 J47  0.2+  0.1-  

081006 204  0.4-  0.1-    081006 J47  0.0   0.2-    081006 J47  0.3+  0.0   

081006 J95  0.0   0.0     081006 J47  0.1+  0.1+    081006 213  1.2-  0.4-  

081006 204  0.3-  0.3-    081006 473  0.1+  0.3-    081006 J47  0.6+  0.0   

081006 204  0.2-  0.2-    081006 J47  0.1+  0.1-    081006 J47  0.2+  0.3-  

081006 204  0.1-  0.2-    081006 952  0.6-  0.3-    081006 473  0.1+  0.0   

081006 204  0.2-  0.0     081006 143  0.3+  0.4+    081006 213  0.7-  0.7-  

081006 204  0.5-  0.3-    081006 J47  0.0   0.1-    081006 J75  1.1+  0.3+  

081006 620  0.7-  0.1-    081006 952  0.0   0.3+    081006 J75  0.8+  0.3+  

081006 143  0.1-  0.0     081006 J47  0.3-  0.0     081006 213  0.9-  0.1-  

081006 620  0.1+  0.2-    081006 213  0.1-  0.2-    081006 J75  0.3+  0.4+  

081006 204  0.5-  0.1-    081006 J47  0.0   0.0     081006 J75  0.9+  0.1+  

081006 204  0.4-  0.2-    081006 213  0.6-  0.5-    081006 J75  1.1+  0.0   

081006 204  0.6-  0.1-    081006 J47  0.1+  0.1-    081006 473  0.2+  0.2-  

081006 204  0.4-  0.1-    081006 473  0.3+  0.2-    081006 J75  1.4+  0.2+  

081006 204  0.6-  0.0     081006 143  0.5+  0.0     081006 473  0.6+  0.4-  

081006 620  0.2+  0.0     081006 952  0.7-  0.2-    081007 213  0.7-  0.6-  

081006 143  0.2-  0.1-    081006 J47  0.3-  0.2-    081007 A86 (5.2+  0.3-) 

081006 473  0.3-  0.5+    081006 213  0.3-  0.4-    081007 J75  1.0+  0.0   

081006 046 (3.8+  1.6+)   081006 J47  0.2-  0.2-    081007 213  0.6-  0.2-  

081006 046  0.4-  0.4+    081006 J75  0.8+  0.3+    081007 473  0.2-  0.0   

081006 046  0.0   0.3-    081006 J47  0.0   0.1-    081007 J75  0.4+  0.1+  

081006 046  0.1+  0.0     081006 J47  0.3+  0.0     081007 J53  1.0-  0.2-  

081006 046  0.1+  0.1-    081006 213  0.1-  0.3-    081007 A86 (6.3+  0.1+) 

081006 620  0.1-  0.1+    081006 J75  0.5-  0.3-    081007 J75  1.3+  0.0   

081006 473  0.4-  0.2+    081006 213  0.1-  0.9-    081007 J53  1.2-  0.0   

081006 J75  0.5-  0.2+    081006 J47  0.7+  0.2+    081007 213  1.7-  0.6-  

081006 620  0.0   0.0     081006 473  0.4+  0.4-    081007 J75  0.2+  0.3+  

081006 046  0.4-  0.3-    081006 J47  0.0   0.0     081007 A77  0.7+  0.6+  

081006 046  0.2+  0.6-    081006 J47  0.2+  0.1-    081007 A77  0.4+  0.7+  

081006 143  0.0   0.1-    081006 J53  0.7+  0.0     081007 A77  0.5-  0.6+  

081006 046  0.3+  0.4+    081006 J53  0.3+  0.1+    081007 A77  0.8+  0.4+  

081006 046  0.1-  0.2+    081006 J47  0.3+  0.2-    081007 A77  0.4+  0.6+  

081006 J75  0.4+  0.5+    081006 213  0.6-  0.1-    081007 A77  0.8-  1.0+  

081006 046  0.3+  0.3+    081006 J47  0.0   0.2-    081007 A77  1.0+  0.3+  

081006 046  0.4-  0.2+    081006 J53  0.1-  0.0     081007 A77  0.3-  0.2+  

081006 046  0.2-  0.5+    081006 213  1.0-  0.5-    081007 J53  0.9-  0.0   

081006 473  0.0   0.1+    081006 143  0.2-  0.0     081007 A77  0.3-  0.0   

081006 213  0.9-  0.4+    081006 J47  0.5-  0.2-    081007 J53  1.0-  0.2-  

